Weather in Neos Marmaras

Greece     40°05′40″N   23°47′09″E
temp.,
°C
wind,
m/s
gust,
m/s
humid.,
%
clouds,
%
prec.,
mm/h
press.,
hPa
HPBL,
m
9 may, sun
sun900:00+17e597226 0.0 1018588
03:00+17nw017098 0.0 1020114
06:00+17e4564100 0.0 1022626
09:00+16e775476 0.0 10241010
12:00+17ene885050 0.0 10251130
15:00+18e56495 0.0 1025627
18:00+18e34505 0.0 1024377
21:00+17e11585 0.0 102521
10 may, mon
mon1000:00+16e45670 0.0 1025492
03:00+15n44660 0.0 1024522
06:00+14ne33570 0.0 1024203
09:00+15ne23510 0.0 1024520
12:00+18ne12430 0.0 1024691
15:00+19sse22410 0.0 1023779
18:00+17sse42440 0.0 1021494
21:00+16w11475 0.0 102193
11 may, tue
tue1100:00+16nne12485 0.0 1021178
03:00+15ne11585 0.0 1020144
06:00+14ene11635 0.0 1019124
09:00+15ene015718 0.0 1020393
12:00+18nnw01500 0.0 1019516
15:00+17sse42580 0.0 1017631
18:00+17sse5457100 0.0 1016387
21:00+16sse224955 0.0 1014146
12 may, wed
wed1200:00+16ene01480 0.0 101493
03:00+16ne11520 0.0 1013123
06:00+16nne2255100 0.0 1012170
09:00+17ese1158100 0.0 1011268
12:00+17sse546044 0.0 1011471
15:00+18se556323 0.0 1009428
18:00+18se55598 0.0 1008316
21:00+17ese45680 0.0 1007241
13 may, thu
thu1300:00+17ne22660 0.0 100757
03:00+17nnw34710 0.0 1007191
06:00+16nnw34700 0.0 1007207
09:00+18w11620 0.0 1008241
12:00+19ssw21635 0.0 1009343
15:00+19s55715 0.0 1008286
18:00+19sse55700 0.0 1008279
21:00+18se45780 0.0 1008101